Total_Precipitation_Accumulation
1.12 1.29 1.29 1.16 1.33 1.66 1.10 0.92 1.21 1.09 0.80 0.80 0.74 0.68 0.63 0.59 0.62 0.60 1.16 1.13 1.02 1.02 1.27 1.84 2.05 2.25 2.21 2.02 1.96 2.18 2.10 2.07 2.12 2.22 2.46 2.70 2.76 2.55 2.06 1.49 1.29 1.36 1.25 1.60 1.67 1.08 2.09 1.54 1.34 0.70 0.96 1.71
0.94 1.94 1.08 1.32 1.29 1.46 2.68 2.60 1.05 1.03 1.19 1.09 0.80 0.79 0.70 0.96 1.01 0.90 1.01 1.17 1.03 1.13 1.16 1.16 1.11 1.58 1.77 1.89 1.84 1.80 1.68 1.83 1.88 1.75 1.75 1.86 1.71 1.77 1.91 2.08 2.25 2.22 1.75 1.34 1.06 1.06 0.95 1.62 1.71 1.40 1.28 0.90
1.46 1.43 0.81 0.78 1.06 1.30 1.14 1.67 2.06 1.74 1.18 1.07 1.66 1.36 1.17 0.93 0.92 0.87 0.80 0.65 0.63 0.48 0.61 0.58 0.66 0.82 1.26 1.86 1.59 1.74 1.65 1.57 1.65 1.81 1.68 1.49 1.70 1.69 1.47 1.36 1.28 1.27 1.32 1.14 1.04 1.12 1.24 1.18 1.14 0.75 0.74 1.06
1.64 1.21 0.87 1.11 0.99 0.85 1.03 1.00 0.93 1.49 1.97 1.86 1.53 1.34 1.82 1.93 1.30 0.81 0.59 0.63 0.51 0.62 0.33 0.41 0.25 0.34 0.53 0.71 1.08 1.40 1.57 1.45 1.47 1.46 1.61 1.68 1.47 1.51 1.47 1.43 1.32 1.33 1.26 1.26 1.06 1.01 0.94 1.33 1.70 1.16 0.78 0.74
0.89 0.80 1.05 0.84 0.97 0.92 0.54 0.96 0.89 0.96 1.09 1.06 1.67 1.52 1.09 1.18 1.14 0.81 0.55 0.54 0.57 0.52 0.42 0.32 0.38 0.35 0.41 0.45 0.55 0.75 0.89 1.18 1.41 1.56 1.41 1.42 1.31 1.47 1.30 1.41 1.50 1.32 1.38 1.26 1.08 0.92 0.92 0.93 1.05 1.19 1.20 0.96
0.63 0.63 0.51 0.84 0.98 0.79 0.69 0.54 0.47 0.66 0.90 0.71 0.77 0.83 0.82 1.00 1.11 1.13 1.01 0.90 0.63 0.65 0.61 0.59 0.42 0.44 0.36 0.42 0.57 0.67 1.02 0.95 0.99 1.24 1.32 1.34 1.44 1.22 1.11 1.33 1.40 1.56 1.44 1.42 1.25 1.37 1.11 1.02 1.08 0.98 0.81 0.90
0.97 0.50 0.57 0.58 0.79 0.74 0.52 0.49 0.54 0.73 0.80 0.71 1.02 0.77 0.69 0.52 0.54 0.59 0.65 0.73 0.75 0.82 0.75 0.66 0.60 0.47 0.42 0.42 0.53 0.70 0.66 0.94 1.13 1.32 1.05 0.94 1.14 1.37 1.42 1.34 1.33 1.45 1.48 1.63 1.21 1.26 1.27 1.37 1.15 1.04 0.98 0.77
1.05 1.24 0.69 0.69 1.16 0.83 0.65 0.51 0.65 0.59 0.88 1.30 0.67 0.87 0.67 0.56 0.49 0.45 0.43 0.43 0.50 0.50 0.48 0.52 0.40 0.40 0.44 0.40 0.38 0.38 0.53 0.59 0.67 0.77 0.84 0.87 0.87 0.85 0.96 1.20 1.19 1.27 1.59 1.37 1.35 1.22 1.23 1.24 1.27 1.12 1.21 1.06
1.42 1.83 1.15 1.23 1.02 0.70 0.67 0.46 0.38 0.48 0.47 0.51 0.45 0.50 0.74 0.71 0.65 0.51 0.59 0.47 0.41 0.42 0.38 0.37 0.32 0.34 0.27 0.28 0.31 0.31 0.44 0.42 0.46 0.49 0.68 0.61 0.69 0.74 0.77 0.73 0.80 1.00 1.27 1.29 1.24 1.20 1.18 1.27 1.21 1.01 1.04 1.06
0.75 1.33 1.63 1.19 1.33 1.42 1.22 0.89 0.89 0.59 0.58 0.45 0.43 0.45 0.42 0.55 0.43 0.57 0.44 0.44 0.35 0.22 0.20 0.19 0.21 0.19 0.27 0.29 0.32 0.49 0.37 0.35 0.37 0.41 0.43 0.54 0.56 0.59 0.53 0.58 0.57 0.60 0.81 1.06 1.19 1.15 1.04 1.07 1.06 1.05 1.04 0.97
1.38 1.28 1.45 1.72 1.83 1.12 1.36 0.92 0.77 0.61 0.73 0.76 0.59 0.77 0.60 0.60 0.50 0.58 0.49 0.35 0.57 0.37 0.34 0.28 0.28 0.33 0.36 0.28 0.23 0.25 0.29 0.21 0.33 0.25 0.23 0.21 0.21 0.35 0.39 0.43 0.44 0.57 0.62 0.69 0.83 1.00 1.14 1.09 0.97 0.93 0.99 0.96
1.54 0.87 0.83 1.12 1.27 1.81 1.44 1.67 1.59 1.22 1.11 1.23 0.90 0.85 0.75 0.95 0.80 0.63 0.63 0.63 0.48 0.54 0.69 0.46 0.47 0.38 0.29 0.22 0.25 0.22 0.23 0.19 0.15 0.25 0.23 0.19 0.13 0.15 0.23 0.33 0.38 0.44 0.48 0.61 0.62 0.68 0.84 0.97 0.91 0.86 0.83 0.79
1.41 1.18 1.02 1.17 1.30 0.97 0.96 0.86 0.98 0.85 1.13 0.90 0.83 0.63 0.51 0.65 0.55 0.63 0.57 0.51 0.46 0.58 0.49 0.40 0.34 0.39 0.35 0.33 0.34 0.37 0.19 0.18 0.17 0.19 0.21 0.17 0.16 0.18 0.22 0.25 0.31 0.38 0.39 0.48 0.61 0.59 0.61 0.73 0.82 0.80 0.83 0.74
0.87 1.05 0.97 0.84 0.82 0.86 0.71 0.85 0.84 0.85 1.03 0.81 0.62 0.67 0.79 0.71 0.67 0.53 0.67 0.69 0.58 0.56 0.64 0.42 0.38 0.42 0.40 0.38 0.30 0.21 0.16 0.14 0.11 0.12 0.11 0.13 0.12 0.15 0.13 0.13 0.17 0.28 0.36 0.37 0.45 0.57 0.60 0.62 0.63 0.73 0.77 0.80
0.77 0.72 0.92 0.88 0.88 0.50 0.45 0.60 0.62 0.73 0.59 0.56 0.68 0.65 0.63 0.66 0.64 0.58 0.51 0.57 0.37 0.46 0.37 0.40 0.33 0.34 0.30 0.37 0.26 0.46 0.19 0.21 0.15 0.10 0.08 0.08 0.09 0.14 0.07 0.07 0.14 0.15 0.16 0.26 0.34 0.43 0.50 0.58 0.56 0.53 0.71 0.72
0.85 0.63 0.81 0.85 0.69 0.73 0.74 0.63 0.63 0.53 0.40 0.84 1.29 0.69 0.49 0.45 0.78 0.40 0.56 0.68 0.48 0.46 0.50 0.48 0.41 0.36 0.37 0.27 0.31 0.34 0.27 0.19 0.14 0.18 0.26 0.24 0.12 0.12 0.08 0.06 0.06 0.12 0.12 0.10 0.17 0.29 0.36 0.45 0.65 0.56 0.57 0.60
1.10 1.09 0.80 0.82 0.66 0.68 0.96 0.91 0.76 0.79 0.69 0.80 0.82 0.97 0.82 1.22 1.05 0.76 0.65 0.68 0.59 0.56 0.55 0.52 0.56 0.54 0.44 0.41 0.55 0.55 0.44 0.42 0.42 0.31 0.13 0.12 0.12 0.19 0.14 0.19 0.10 0.12 0.10 0.10 0.10 0.10 0.19 0.35 0.38 0.46 0.55 0.51
1.24 0.97 0.80 1.27 0.78 0.88 0.71 0.72 0.66 0.91 0.70 0.48 0.65 0.77 0.75 0.72 0.46 0.60 0.56 0.53 0.48 0.52 0.60 0.68 0.61 0.63 0.59 0.54 0.57 0.53 0.43 0.52 0.48 0.44 0.32 0.32 0.18 0.17 0.22 0.17 0.13 0.14 0.12 0.10 0.10 0.12 0.12 0.11 0.28 0.31 0.36 0.49
1.68 1.51 1.45 1.27 1.03 1.04 0.88 0.72 0.64 0.61 0.47 0.75 0.60 0.60 0.66 0.55 0.68 0.52 0.47 0.70 0.54 0.53 0.47 0.56 0.59 0.57 0.73 0.60 0.58 0.59 0.51 0.54 0.50 0.61 0.44 0.51 0.29 0.27 0.25 0.19 0.15 0.16 0.18 0.18 0.12 0.12 0.12 0.11 0.14 0.20 0.29 0.30
0.66 0.87 1.48 1.88 1.49 1.74 1.43 1.12 1.26 1.49 0.92 0.98 1.08 1.30 0.80 0.73 1.42 0.80 0.66 0.52 0.46 0.44 0.51 0.53 0.55 0.66 0.59 0.65 0.58 0.64 0.61 0.65 0.60 0.56 0.62 0.50 0.43 0.35 0.32 0.29 0.25 0.22 0.17 0.14 0.15 0.11 0.08 0.08 0.10 0.12 0.15 0.21
0.40 0.67 0.89 0.87 1.36 1.49 1.57 1.26 1.40 1.43 1.50 1.07 0.74 1.14 0.89 0.90 0.77 0.80 0.76 0.89 0.84 0.71 0.68 0.66 0.54 0.50 0.55 0.57 0.63 0.64 0.61 0.51 0.64 0.57 0.64 0.68 0.68 0.53 0.48 0.42 0.31 0.22 0.20 0.17 0.13 0.12 0.14 0.13 0.10 0.07 0.08 0.14
0.68 0.76 0.55 0.82 1.18 1.00 1.13 1.11 1.02 1.17 1.17 1.04 0.88 1.13 1.21 1.23 0.95 1.18 1.02 0.83 0.78 0.72 0.75 0.87 0.79 0.68 0.69 0.66 0.68 0.72 0.72 0.68 0.61 0.59 0.60 0.65 0.73 0.71 0.57 0.52 0.47 0.41 0.31 0.21 0.15 0.13 0.12 0.11 0.12 0.12 0.08 0.08
0.68 0.72 0.78 0.84 1.02 1.19 1.30 1.23 1.03 1.25 1.00 0.87 0.87 0.88 1.01 1.10 1.04 0.89 0.95 1.04 0.96 0.94 0.90 0.98 0.97 0.86 0.81 0.76 0.81 0.84 0.84 0.87 0.81 0.67 0.58 0.59 0.59 0.67 0.77 0.69 0.53 0.46 0.37 0.33 0.29 0.18 0.14 0.13 0.10 0.09 0.10 0.11
0.51 0.66 0.84 0.80 0.90 1.00 1.08 1.22 1.34 1.35 1.20 0.98 0.84 0.96 1.12 1.31 0.93 0.90 1.00 0.94 0.92 1.00 1.00 0.99 1.00 0.98 1.08 0.93 0.96 0.95 0.99 0.95 0.86 0.97 0.94 0.86 0.73 0.73 0.73 0.75 0.72 0.60 0.51 0.45 0.38 0.31 0.22 0.18 0.15 0.12 0.10 0.10
0.68 0.57 0.63 0.76 0.73 0.82 0.91 0.95 1.05 1.04 1.11 1.22 1.38 1.46 1.32 1.10 1.03 0.88 0.93 0.72 0.82 0.87 0.88 0.77 0.80 0.82 0.85 0.83 0.91 0.96 1.00 0.99 0.98 1.04 1.08 1.15 1.18 1.13 0.96 0.87 0.75 0.71 0.66 0.62 0.55 0.44 0.36 0.27 0.21 0.18 0.16 0.16
0.52 0.63 0.71 0.67 0.75 0.84 0.87 0.94 0.92 0.94 1.04 1.09 1.39 1.12 1.06 1.18 1.25 1.24 1.19 0.97 0.90 0.77 0.70 0.66 0.66 0.62 0.61 0.75 0.58 0.61 0.71 0.78 0.85 0.96 0.99 0.99 1.03 1.09 1.00 0.93 0.85 0.84 0.86 1.02 0.84 0.63 0.47 0.32 0.25 0.24 0.24 0.23
0.57 0.55 0.55 0.58 0.63 0.66 0.57 0.71 0.87 1.18 1.16 1.35 1.06 1.30 1.44 1.41 1.41 1.38 1.13 1.14 1.15 1.24 1.13 1.10 0.87 0.74 0.71 0.72 0.74 0.63 0.64 0.67 0.71 0.82 0.80 0.81 0.84 0.89 0.82 0.82 0.86 0.93 0.98 1.02 0.88 0.71 0.63 0.55 0.39 0.27 0.25 0.25
0.45 0.41 0.53 0.64 0.64 0.61 0.65 0.62 0.75 0.95 0.66 0.71 0.73 0.77 0.82 0.92 1.08 1.18 1.21 1.36 1.23 1.36 1.11 1.03 0.95 0.92 0.74 0.67 0.62 0.60 0.57 0.57 0.61 0.64 0.68 0.76 0.82 0.83 0.80 0.79 0.75 0.73 0.73 0.96 1.02 1.11 1.08 0.95 0.60 0.48 0.35 0.26
0.30 0.34 0.49 0.58 0.68 0.74 0.74 0.71 0.65 0.56 0.59 0.58 0.56 0.58 0.62 0.64 0.64 0.80 0.78 0.96 0.91 1.02 1.14 1.12 0.98 0.93 0.83 0.68 0.64 0.59 0.55 0.52 0.51 0.49 0.58 0.61 0.68 0.76 0.87 0.81 0.70 0.67 0.67 0.72 0.86 1.21 1.10 1.07 0.92 0.76 0.55 0.28
0.34 0.39 0.38 0.38 0.43 0.46 0.58 0.62 0.58 0.65 0.61 0.59 0.61 0.62 0.55 0.65 0.66 0.58 0.53 0.58 0.80 0.74 0.85 0.86 0.97 0.90 0.87 0.86 0.77 0.72 0.61 0.61 0.47 0.49 0.44 0.46 0.51 0.56 0.59 0.68 0.70 0.74 0.65 0.69 0.73 0.89 1.12 1.13 0.96 0.68 0.44 0.34
0.31 0.31 0.37 0.40 0.39 0.32 0.31 0.32 0.35 0.41 0.52 0.53 0.67 0.98 0.60 0.60 0.74 0.69 0.69 0.78 0.80 0.86 0.72 0.84 0.77 0.79 0.73 0.72 0.79 0.83 0.75 0.68 0.62 0.51 0.58 0.56 0.46 0.48 0.50 0.54 0.59 0.57 0.56 0.54 0.61 0.74 0.84 0.85 0.84 0.75 0.60 0.54